| time (UTC) | temp C | wind direction | speed KPH | gust KPH | rain 1hr cm | rain 24hr cm | rain mn cm | humidity % | barometer mb |
| 20260504050306 | 6 | 286 | 0.0 | 6.4 | 0.00 | 0.20 | 0.00 | 70 | |
| 20260504045706 | 6 | 270 | 0.0 | 0.0 | 0.00 | 0.20 | 0.00 | 68 | |
| 20260504045106 | 6 | 270 | 0.0 | 17.7 | 0.00 | 0.20 | 0.00 | 68 | |
| 20260504044506 | 6 | 313 | 0.0 | 12.9 | 0.00 | 0.20 | 0.00 | 68 | |
| 20260504043906 | 6 | 292 | 6.4 | 9.7 | 0.00 | 0.20 | 0.00 | 67 | |
| 20260504043707 | 6 | 320 | 0.0 | 9.7 | 0.00 | 0.20 | 0.00 | 69 | |
| 20260504043306 | 6 | 5 | 0.0 | 11.3 | 0.00 | 0.20 | 0.00 | 69 | |
| 20260504042706 | 5 | 241 | 0.0 | 0.0 | 0.00 | 0.20 | 0.00 | 70 | |
| 20260504042106 | 5 | 241 | 0.0 | 0.0 | 0.00 | 0.20 | 0.00 | 72 | |
| 20260504041707 | 5 | 241 | 0.0 | 8.0 | 0.00 | 0.20 | 0.00 | 74 | |
| 20260504041506 | 5 | 99 | 4.8 | 8.0 | 0.00 | 0.20 | 0.00 | 76 | |
| 20260504040906 | 4 | 178 | 0.0 | 0.0 | 0.00 | 0.20 | 0.00 | 77 | |
| 20260504040306 | 4 | 178 | 0.0 | 0.0 | 0.00 | 0.20 | 0.00 | 80 | |
| 20260504035706 | 4 | 178 | 0.0 | 0.0 | 0.00 | 0.20 | 0.00 | 81 | |
| 20260504035106 | 4 | 178 | 0.0 | 0.0 | 0.00 | 0.20 | 0.00 | 82 | |
| 20260504034506 | 4 | 178 | 0.0 | 0.0 | 0.00 | 0.20 | 0.00 | 83 | |
| 20260504033906 | 4 | 178 | 0.0 | 0.0 | 0.00 | 0.20 | 0.00 | 82 | |
| 20260504033707 | 4 | 178 | 0.0 | 0.0 | 0.00 | 0.20 | 0.00 | 82 | |
| 20260504033306 | 4 | 178 | 0.0 | 0.0 | 0.00 | 0.20 | 0.00 | 82 | |
| 20260504032706 | 4 | 178 | 0.0 | 0.0 | 0.00 | 0.20 | 0.00 | 82 | |
| 20260504032106 | 4 | 178 | 0.0 | 4.8 | 0.00 | 0.20 | 0.00 | 81 | |
| 20260504031713 | 4 | 157 | 0.0 | 0.0 | 0.00 | 0.20 | 0.00 | 82 | |
| 20260504031506 | 4 | 157 | 0.0 | 0.0 | 0.00 | 0.20 | 0.00 | 82 | |
| 20260504030906 | 4 | 157 | 0.0 | 0.0 | 0.00 | 0.20 | 0.00 | 82 | |
| 20260504030407 | 4 | 157 | 0.0 | 0.0 | 0.00 | 0.20 | 0.00 | 82 | |
| 20260504030306 | 4 | 157 | 0.0 | 0.0 | 0.00 | 0.20 | 0.00 | 82 | |
| 20260504025706 | 4 | 157 | 0.0 | 0.0 | 0.00 | 0.20 | 0.00 | 82 | |
| 20260504025106 | 4 | 157 | 0.0 | 0.0 | 0.00 | 0.20 | 0.00 | 82 | |
| 20260504024506 | 4 | 157 | 0.0 | 0.0 | 0.00 | 0.20 | 0.00 | 82 | |
| 20260504023906 | 4 | 157 | 0.0 | 0.0 | 0.00 | 0.20 | 0.00 | 82 | |
| 20260504023707 | 4 | 157 | 0.0 | 0.0 | 0.00 | 0.20 | 0.00 | 82 | |
| 20260504023306 | 4 | 157 | 0.0 | 0.0 | 0.00 | 0.20 | 0.00 | 82 | |
| 20260504022706 | 4 | 157 | 0.0 | 0.0 | 0.00 | 0.20 | 0.00 | 82 | |
| 20260504022233 | 4 | 157 | 0.0 | 0.0 | 0.00 | 0.20 | 0.00 | 82 | |
| 20260504022106 | 4 | 157 | 0.0 | 0.0 | 0.00 | 0.20 | 0.00 | 82 | |
| 20260504021506 | 4 | 157 | 0.0 | 0.0 | 0.00 | 0.20 | 0.00 | 82 | |
| 20260504020906 | 4 | 157 | 0.0 | 0.0 | 0.00 | 0.20 | 0.00 | 82 | |
| 20260504020306 | 4 | 157 | 0.0 | 0.0 | 0.00 | 0.20 | 0.00 | 81 | |
| 20260504020115 | 4 | 157 | 0.0 | 8.0 | 0.00 | 0.20 | 0.00 | 82 | |
| 20260504015706 | 4 | 157 | 0.0 | 8.0 | 0.00 | 0.20 | 0.00 | 82 | |
| 20260504015106 | 4 | 170 | 0.0 | 0.0 | 0.00 | 0.20 | 0.00 | 82 | |
| 20260504014506 | 4 | 170 | 0.0 | 0.0 | 0.00 | 0.20 | 0.00 | 81 | |
| 20260504013906 | 4 | 170 | 0.0 | 0.0 | 0.00 | 0.20 | 0.00 | 81 | |
| 20260504013707 | 4 | 170 | 0.0 | 0.0 | 0.00 | 0.20 | 0.00 | 81 | |
| 20260504013306 | 4 | 170 | 0.0 | 0.0 | 0.00 | 0.20 | 0.00 | 81 | |
| 20260504012706 | 4 | 170 | 0.0 | 6.4 | 0.00 | 0.20 | 0.00 | 81 | |
| 20260504012106 | 4 | 164 | 0.0 | 0.0 | 0.00 | 0.20 | 0.00 | 81 | |
| 20260504011707 | 4 | 164 | 0.0 | 8.0 | 0.00 | 0.20 | 0.00 | 81 | |
| 20260504011506 | 4 | 163 | 4.8 | 8.0 | 0.00 | 0.20 | 0.00 | 81 | |
| 20260504010906 | 4 | 133 | 6.4 | 6.4 | 0.00 | 0.20 | 0.00 | 81 | |
| 20260504010306 | 4 | 170 | 0.0 | 0.0 | 0.00 | 0.20 | 0.00 | 81 | |
| 20260504005706 | 4 | 170 | 0.0 | 0.0 | 0.00 | 0.20 | 0.00 | 80 | |
| 20260504005106 | 4 | 170 | 0.0 | 0.0 | 0.00 | 0.20 | 0.00 | 81 | |
| 20260504004506 | 4 | 170 | 0.0 | 4.8 | 0.00 | 0.20 | 0.00 | 80 | |
| 20260504003906 | 4 | 181 | 3.2 | 8.0 | 0.00 | 0.20 | 0.00 | 80 | |
| 20260504003306 | 4 | 171 | 0.0 | 0.0 | 0.00 | 0.20 | 0.00 | 80 | |
| 20260504002706 | 4 | 171 | 0.0 | 4.8 | 0.00 | 0.20 | 0.00 | 80 | |
| 20260504002106 | 5 | 170 | 0.0 | 0.0 | 0.00 | 0.20 | 0.00 | 80 | |
| 20260504001708 | 5 | 170 | 0.0 | 0.0 | 0.00 | 0.20 | 0.00 | 80 | |
| 20260504001506 | 5 | 170 | 0.0 | 0.0 | 0.00 | 0.20 | 0.00 | 80 | |
| 20260504000906 | 5 | 170 | 0.0 | 0.0 | 0.00 | 0.20 | 0.00 | 80 | |
| 20260504000306 | 5 | 170 | 0.0 | 0.0 | 0.00 | 0.20 | 0.00 | 80 | |
| 20260503235706 | 5 | 170 | 0.0 | 0.0 | 0.00 | 0.20 | 0.00 | 80 | |
| 20260503235106 | 5 | 170 | 0.0 | 0.0 | 0.00 | 0.20 | 0.00 | 79 | |
| 20260503234506 | 5 | 170 | 0.0 | 4.8 | 0.00 | 0.20 | 0.00 | 79 | |
| 20260503233906 | 5 | 163 | 0.0 | 0.0 | 0.00 | 0.20 | 0.00 | 79 | |
| 20260503233708 | 5 | 163 | 0.0 | 0.0 | 0.00 | 0.20 | 0.00 | 79 | |
| 20260503233306 | 5 | 163 | 0.0 | 0.0 | 0.00 | 0.20 | 0.00 | 79 | |
| 20260503232706 | 5 | 163 | 0.0 | 0.0 | 0.00 | 0.20 | 0.00 | 79 | |
| 20260503232107 | 5 | 163 | 0.0 | 4.8 | 0.00 | 0.20 | 0.00 | 79 | |
| 20260503231708 | 5 | 170 | 0.0 | 0.0 | 0.00 | 0.20 | 0.00 | 78 | |
| 20260503231507 | 5 | 170 | 0.0 | 0.0 | 0.00 | 0.20 | 0.00 | 78 | |
| 20260503230907 | 5 | 170 | 0.0 | 0.0 | 0.00 | 0.20 | 0.00 | 78 | |
| 20260503230307 | 5 | 170 | 0.0 | 0.0 | 0.00 | 0.20 | 0.00 | 78 | |
| 20260503225707 | 5 | 170 | 0.0 | 0.0 | 0.00 | 0.20 | 0.00 | 78 | |
| 20260503225107 | 5 | 170 | 0.0 | 0.0 | 0.00 | 0.20 | 0.00 | 78 | |
| 20260503224507 | 5 | 170 | 0.0 | 0.0 | 0.00 | 0.20 | 0.00 | 78 | |
| 20260503223907 | 5 | 170 | 0.0 | 0.0 | 0.00 | 0.20 | 0.00 | 77 | |
| 20260503223708 | 5 | 170 | 0.0 | 0.0 | 0.00 | 0.20 | 0.00 | 77 | |
| 20260503223307 | 5 | 170 | 0.0 | 6.4 | 0.00 | 0.20 | 0.00 | 77 | |
| 20260503222707 | 5 | 160 | 0.0 | 0.0 | 0.00 | 0.20 | 0.00 | 77 | |
| 20260503222107 | 5 | 160 | 0.0 | 0.0 | 0.00 | 0.20 | 0.00 | 77 | |
| 20260503221708 | 5 | 160 | 0.0 | 0.0 | 0.00 | 0.20 | 0.00 | 77 | |
| 20260503221507 | 5 | 160 | 0.0 | 0.0 | 0.00 | 0.20 | 0.00 | 77 | |
| 20260503220907 | 5 | 160 | 0.0 | 6.4 | 0.00 | 0.20 | 0.00 | 77 | |
| 20260503220307 | 5 | 170 | 0.0 | 0.0 | 0.00 | 0.20 | 0.00 | 77 | |
| 20260503215707 | 5 | 170 | 0.0 | 0.0 | 0.00 | 0.20 | 0.00 | 77 | |
| 20260503215107 | 5 | 170 | 0.0 | 0.0 | 0.00 | 0.20 | 0.00 | 77 | |
| 20260503214507 | 5 | 170 | 0.0 | 0.0 | 0.00 | 0.20 | 0.00 | 76 | |
| 20260503213907 | 5 | 170 | 0.0 | 0.0 | 0.00 | 0.20 | 0.00 | 76 | |
| 20260503213708 | 5 | 170 | 0.0 | 0.0 | 0.00 | 0.20 | 0.00 | 76 | |
| 20260503213307 | 5 | 170 | 0.0 | 0.0 | 0.00 | 0.20 | 0.00 | 76 | |
| 20260503212707 | 5 | 170 | 0.0 | 0.0 | 0.00 | 0.20 | 0.00 | 76 | |
| 20260503212107 | 5 | 170 | 0.0 | 0.0 | 0.00 | 0.20 | 0.00 | 76 | |
| 20260503211708 | 5 | 170 | 0.0 | 6.4 | 0.00 | 0.20 | 0.00 | 76 | |
| 20260503211507 | 5 | 170 | 0.0 | 6.4 | 0.00 | 0.20 | 0.00 | 76 | |
| 20260503210907 | 5 | 136 | 0.0 | 6.4 | 0.00 | 0.20 | 0.00 | 76 | |
| 20260503210307 | 6 | 158 | 0.0 | 6.4 | 0.00 | 0.20 | 0.00 | 76 | |
| 20260503205707 | 6 | 157 | 4.8 | 6.4 | 0.00 | 0.20 | 0.00 | 75 | |
| 20260503205107 | 6 | 164 | 0.0 | 0.0 | 0.00 | 0.20 | 0.00 | 75 | |
| 20260503204507 | 6 | 164 | 0.0 | 6.4 | 0.00 | 0.20 | 0.00 | 75 | |
| 20260503203907 | 6 | 153 | 0.0 | 6.4 | 0.00 | 0.20 | 0.00 | 75 | |
| 20260503203708 | 6 | 153 | 0.0 | 6.4 | 0.00 | 0.20 | 0.00 | 75 | |
| 20260503203307 | 6 | 151 | 0.0 | 0.0 | 0.00 | 0.20 | 0.00 | 75 | |
| 20260503202707 | 6 | 151 | 0.0 | 0.0 | 0.00 | 0.20 | 0.00 | 74 | |
| 20260503202107 | 6 | 151 | 0.0 | 0.0 | 0.00 | 0.20 | 0.00 | 74 | |
| 20260503201708 | 6 | 151 | 0.0 | 0.0 | 0.00 | 0.20 | 0.00 | 74 | |
| 20260503201507 | 6 | 151 | 0.0 | 0.0 | 0.00 | 0.20 | 0.00 | 74 | |
| 20260503200907 | 6 | 151 | 0.0 | 0.0 | 0.00 | 0.20 | 0.00 | 74 | |
| 20260503200307 | 6 | 151 | 0.0 | 0.0 | 0.00 | 0.20 | 0.00 | 74 | |
| 20260503195707 | 6 | 151 | 0.0 | 0.0 | 0.00 | 0.20 | 0.00 | 74 | |
| 20260503195107 | 7 | 151 | 0.0 | 0.0 | 0.00 | 0.20 | 0.00 | 74 | |
| 20260503194507 | 7 | 151 | 0.0 | 0.0 | 0.00 | 0.20 | 0.00 | 74 | |
| 20260503193907 | 7 | 151 | 0.0 | 0.0 | 0.00 | 0.20 | 0.00 | 73 | |
| 20260503193708 | 7 | 151 | 0.0 | 0.0 | 0.00 | 0.20 | 0.00 | 73 | |
| 20260503193307 | 7 | 151 | 0.0 | 0.0 | 0.00 | 0.20 | 0.00 | 73 | |
| 20260503192707 | 7 | 151 | 0.0 | 0.0 | 0.00 | 0.20 | 0.00 | 73 | |
| 20260503192107 | 7 | 151 | 0.0 | 0.0 | 0.00 | 0.20 | 0.00 | 73 | |
| 20260503191708 | 7 | 151 | 0.0 | 0.0 | 0.00 | 0.20 | 0.00 | 73 | |
| 20260503191507 | 7 | 151 | 0.0 | 0.0 | 0.00 | 0.20 | 0.00 | 73 | |
| 20260503190907 | 7 | 151 | 0.0 | 0.0 | 0.00 | 0.20 | 0.00 | 72 | |
| 20260503190307 | 7 | 151 | 0.0 | 0.0 | 0.00 | 0.20 | 0.00 | 72 | |
| 20260503185707 | 7 | 151 | 0.0 | 0.0 | 0.00 | 0.20 | 0.00 | 72 | |
| 20260503185107 | 7 | 151 | 0.0 | 3.2 | 0.00 | 0.20 | 0.00 | 72 | |
| 20260503184507 | 8 | 153 | 0.0 | 0.0 | 0.00 | 0.20 | 0.00 | 72 | |
| 20260503183907 | 8 | 153 | 0.0 | 0.0 | 0.00 | 0.20 | 0.00 | 72 | |
| 20260503183708 | 8 | 153 | 0.0 | 0.0 | 0.00 | 0.20 | 0.00 | 72 | |
| 20260503183307 | 8 | 153 | 0.0 | 0.0 | 0.00 | 0.20 | 0.00 | 71 | |
| 20260503182707 | 8 | 153 | 0.0 | 0.0 | 0.00 | 0.20 | 0.00 | 71 | |
| 20260503182107 | 8 | 153 | 0.0 | 3.2 | 0.00 | 0.20 | 0.00 | 70 | |
| 20260503181708 | 8 | 153 | 1.6 | 3.2 | 0.00 | 0.20 | 0.00 | 70 | |
| 20260503181507 | 8 | 147 | 0.0 | 0.0 | 0.00 | 0.20 | 0.00 | 70 | |
| 20260503180907 | 8 | 147 | 0.0 | 0.0 | 0.00 | 0.20 | 0.00 | 69 | |
| 20260503180307 | 8 | 147 | 0.0 | 0.0 | 0.00 | 0.20 | 0.00 | 67 | |
| 20260503175707 | 8 | 147 | 0.0 | 4.8 | 0.00 | 0.20 | 0.20 | 65 | |
| 20260503175107 | 9 | 68 | 0.0 | 0.0 | 0.00 | 0.20 | 0.20 | 64 | |
| 20260503174507 | 9 | 68 | 0.0 | 0.0 | 0.00 | 0.20 | 0.20 | 64 | |
| 20260503173907 | 9 | 68 | 0.0 | 0.0 | 0.00 | 0.20 | 0.20 | 63 | |
| 20260503173708 | 9 | 68 | 0.0 | 1.6 | 0.00 | 0.20 | 0.20 | 62 | |
| 20260503173307 | 9 | 68 | 0.0 | 6.4 | 0.00 | 0.20 | 0.20 | 62 | |
| 20260503172707 | 10 | 241 | 0.0 | 0.0 | 0.00 | 0.20 | 0.20 | 62 | |
| 20260503172107 | 10 | 241 | 0.0 | 0.0 | 0.00 | 0.20 | 0.20 | 64 | |
| 20260503171507 | 10 | 241 | 0.0 | 0.0 | 0.00 | 0.20 | 0.20 | 64 | |
| 20260503170907 | 10 | 241 | 0.0 | 0.0 | 0.00 | 0.20 | 0.20 | 63 | |
| 20260503170307 | 11 | 241 | 0.0 | 0.0 | 0.00 | 0.20 | 0.20 | 62 | |
| 20260503150907 | 13 | 310 | 0.0 | 9.7 | 0.00 | 0.20 | 0.20 | 55 | |
| 20260503150307 | 14 | 230 | 0.0 | 0.0 | 0.00 | 0.20 | 0.20 | 53 | |
| 20260503140308 | 13 | 272 | 0.0 | 8.0 | 0.00 | 0.20 | 0.20 | 58 | |
| 20260503130908 | 9 | 156 | 3.2 | 8.0 | 0.00 | 0.20 | 0.20 | 77 | |
| 20260503130308 | 8 | 288 | 0.0 | 11.3 | 0.00 | 0.20 | 0.20 | 76 | |
| 20260503110308 | 5 | 350 | 0.0 | 0.0 | 0.08 | 0.20 | 0.20 | 87 | |
| 20260503090308 | 7 | 313 | 8.0 | 11.3 | 0.00 | 0.03 | 0.03 | 84 | |
| 20260503081508 | 6 | 296 | 0.0 | 0.0 | 0.03 | 0.03 | 0.03 | 86 | |
| 20260503080908 | 7 | 296 | 0.0 | 6.4 | 0.03 | 0.03 | 0.03 | 86 | |
| 20260503080308 | 7 | 296 | 0.0 | 0.0 | 0.03 | 0.03 | 0.03 | 86 | |
| 20260503072708 | 7 | 216 | 0.0 | 0.0 | 0.00 | 0.03 | 0.00 | 83 | |
| 20260503072108 | 7 | 216 | 0.0 | 3.2 | 0.00 | 0.03 | 0.00 | 82 | |
| 20260503071709 | 7 | 216 | 0.0 | 3.2 | 0.00 | 0.03 | 0.00 | 82 | |
| 20260503071508 | 7 | 271 | 0.0 | 0.0 | 0.00 | 0.03 | 0.00 | 82 | |
| 20260503070908 | 7 | 271 | 0.0 | 0.0 | 0.00 | 0.03 | 0.00 | 81 | |
| 20260503070308 | 7 | 271 | 0.0 | 0.0 | 0.00 | 0.03 | 0.00 | 80 | |
| 20260503060308 | 7 | 285 | 0.0 | 0.0 | 0.00 | 0.13 | 0.00 | 78 | |
| 20260503055108 | 7 | 285 | 0.0 | 3.2 | 0.00 | 0.18 | 0.00 | 79 | |
| 20260503054508 | 7 | 285 | 0.0 | 9.7 | 0.00 | 0.18 | 0.00 | 79 | |
| 20260503053908 | 7 | 320 | 0.0 | 12.9 | 0.00 | 0.18 | 0.00 | 79 | |
| 20260503053713 | 7 | 327 | 9.7 | 12.9 | 0.00 | 0.18 | 0.00 | 79 | |
| 20260503053308 | 7 | 9 | 0.0 | 0.0 | 0.00 | 0.18 | 0.00 | 79 | |
| 20260503052708 | 6 | 9 | 0.0 | 0.0 | 0.00 | 0.18 | 0.00 | 81 | |
| 20260503052108 | 6 | 9 | 0.0 | 0.0 | 0.00 | 0.18 | 0.00 | 81 |